DW0383 Weather Reports


time (UTC)temp
C
wind
direction
speed
KPH
gust
KPH
rain 1hr
cm
rain 24hr
cm
rain mn
cm
humidity
%
barometer
mb
20260510122810 11 216 8.0 17.7 0.00 0.10 0.10 87 1009.4
20260510122306 11 168 6.4 14.5 0.00 0.10 0.10 87 1009.4
20260510121817 11 229 4.8 16.1 0.00 0.10 0.10 87 1009.4
20260510121309 11 225 6.4 16.1 0.00 0.10 0.10 88 1009.4
20260510120822 11 126 1.6 9.7 0.00 0.10 0.10 89 1009.3
20260510120315 11 170 3.2 9.7 0.00 0.10 0.10 89 1009.2
20260510115827 11 246 3.2 8.0 0.00 0.10 0.10 89 1009.2
20260510115318 11 260 1.6 12.9 0.00 0.10 0.10 89 1009.2
20260510114829 11 243 4.8 12.9 0.00 0.10 0.10 89 1009.4
20260510114338 11 262 3.2 9.7 0.00 0.10 0.10 89 1009.4
20260510113810 11 271 4.8 11.3 0.00 0.10 0.10 89 1009.1
20260510113323 11 163 3.2 16.1 0.00 0.10 0.10 89 1008.9
20260510112815 11 233 6.4 16.1 0.00 0.10 0.10 90 1008.8
20260510112308 11 220 4.8 8.0 0.00 0.10 0.10 94 1008.9
20260510111820 11 175 1.6 16.1 0.00 0.10 0.10 97 1009.1
20260510111312 10 128 4.8 17.7 0.00 0.10 0.10 98 1009.0
20260510110811 10 204 6.4 17.7 0.00 0.10 0.10 98 1009.1
20260510110322 8 17 1.6 8.0 0.00 0.10 0.10 98 1009.0
20260510105814 8 30 1.6 6.4 0.00 0.10 0.10 98 1008.7
20260510105307 7 91 1.6 4.8 0.00 0.10 0.10 97 1008.6
20260510104840 7 103 0.0 6.4 0.00 0.10 0.10 96 1008.3
20260510104330 7 125 3.2 6.4 0.00 0.10 0.10 95 1008.4
20260510103821 7 116 3.2 6.4 0.00 0.10 0.10 96 1008.5
20260510103314 7 314 0.0 0.0 0.00 0.10 0.10 96 1008.6
20260510102806 7 314 0.0 0.0 0.03 0.10 0.10 95 1008.6
20260510102339 7 317 0.0 3.2 0.03 0.10 0.10 96 1008.4
20260510101810 7 197 0.0 3.2 0.03 0.10 0.10 96 1008.1
20260510101303 7 197 1.6 4.8 0.03 0.10 0.10 95 1007.9
20260510100835 7 114 3.2 4.8 0.03 0.10 0.10 94 1007.7
20260510100326 7 114 1.6 4.8 0.03 0.10 0.10 94 1007.9
20260510095825 7 114 3.2 4.8 0.03 0.10 0.10 94 1008.1
20260510095317 7 129 3.2 4.8 0.03 0.10 0.10 95 1008.1
20260510094809 7 129 0.0 3.2 0.03 0.10 0.10 95 1008.2
20260510094303 7 129 1.6 4.8 0.03 0.10 0.10 94 1008.1
20260510093817 8 129 3.2 4.8 0.03 0.10 0.10 94 1008.0
20260510093308 8 149 3.2 4.8 0.03 0.10 0.10 95 1008.0
20260510092820 8 168 1.6 3.2 0.00 0.08 0.08 94 1008.0
20260510092312 8 286 0.0 3.2 0.00 0.08 0.08 95 1007.8
20260510091804 8 286 1.6 4.8 0.00 0.08 0.08 95 1007.8
20260510091316 8 286 0.0 9.7 0.00 0.08 0.08 94 1007.7
20260510090808 8 262 1.6 9.7 0.00 0.08 0.08 94 1007.6
20260510090320 8 225 1.6 4.8 0.00 0.08 0.08 94 1007.4
20260510085812 9 166 1.6 4.8 0.00 0.08 0.08 94 1007.3
20260510085306 9 196 1.6 6.4 0.00 0.08 0.08 94 1007.4
20260510084839 9 160 1.6 6.4 0.00 0.08 0.08 94 1007.4
20260510084310 9 158 1.6 6.4 0.00 0.08 0.08 94 1007.4
20260510083818 9 243 1.6 6.4 0.00 0.08 0.08 94 1007.6
20260510083318 10 168 1.6 8.0 0.00 0.08 0.08 94 1007.7
20260510082813 10 278 1.6 8.0 0.00 0.08 0.08 94 1007.7
20260510082307 10 249 1.6 8.0 0.03 0.08 0.08 94 1007.4
20260510081819 10 216 1.6 8.0 0.03 0.08 0.08 94 1007.7
20260510081318 10 131 3.2 6.4 0.03 0.08 0.08 94 1007.9
20260510080811 10 149 3.2 8.0 0.05 0.08 0.08 94 1007.9
20260510080304 10 112 3.2 12.9 0.08 0.08 0.08 94 1007.9
20260510075837 10 264 3.2 12.9 0.08 0.08 0.08 94 1007.9
20260510075315 10 118 1.6 6.4 0.08 0.08 0.08 94 1007.8
20260510074806 9 209 1.6 8.0 0.08 0.08 0.08 94 1008.0
20260510074318 9 189 3.2 8.0 0.08 0.08 0.08 94 1008.1
20260510073811 9 259 3.2 6.4 0.08 0.08 0.08 93 1008.2
20260510073303 9 235 1.6 6.4 0.08 0.08 0.08 93 1008.1
20260510072817 10 156 3.2 8.0 0.08 0.08 0.08 93 1008.1
20260510072309 10 180 1.6 8.0 0.05 0.05 0.05 93 1008.3
20260510071821 10 263 3.2 4.8 0.05 0.05 0.05 93 1008.3
20260510071313 10 263 3.2 4.8 0.05 0.05 0.05 92 1008.3
20260510070833 10 233 1.6 8.0 0.03 0.03 0.03 91 1008.3
20260510070305 10 199 4.8 8.0 0.00 0.00 0.00 90 1008.3
20260510065816 10 266 1.6 9.7 0.00 0.00 0.00 89 1008.3
20260510065309 10 265 0.0 9.7 0.00 0.00 0.00 88 1008.3
20260510064829 10 305 1.6 6.4 0.00 0.00 0.00 87 1008.3
20260510064306 10 303 1.6 6.4 0.00 0.00 0.00 87 1008.2
20260510063819 10 286 3.2 6.4 0.00 0.00 0.00 87 1008.1
20260510063311 10 234 0.0 11.3 0.00 0.00 0.00 87 1007.9
20260510062803 10 259 1.6 11.3 0.00 0.00 0.00 87 1007.8
20260510062317 10 104 3.2 8.0 0.00 0.00 0.00 88 1007.7
20260510061809 10 218 3.2 8.0 0.00 0.00 0.00 87 1007.7
20260510061323 10 274 1.6 6.4 0.00 0.00 0.00 87 1007.5
20260510060815 10 91 1.6 4.8 0.00 0.00 0.00 87 1007.5
20260510060312 10 126 1.6 6.4 0.00 0.00 0.00 86 1007.8
20260510055840 10 277 4.8 6.4 0.00 0.00 0.00 87 1007.8
20260510055331 10 154 3.2 6.4 0.00 0.00 0.00 87 1007.8
20260510054805 10 41 3.2 6.4 0.00 0.00 0.00 87 1007.7
20260510054335 10 8 3.2 11.3 0.00 0.00 0.00 87 1007.6
20260510053811 10 155 3.2 11.3 0.00 0.00 0.00 87 1007.7
20260510053322 9 64 3.2 8.0 0.00 0.00 0.00 87 1007.8
20260510052814 9 244 1.6 9.7 0.00 0.00 0.00 88 1007.9
20260510052315 9 70 3.2 9.7 0.00 0.00 0.00 87 1007.7
20260510051827 9 303 1.6 4.8 0.00 0.00 0.00 87 1007.7
20260510051314 9 247 1.6 6.4 0.00 0.00 0.00 87 1007.7
20260510050808 9 308 1.6 6.4 0.00 0.00 0.00 87 1007.6
20260510050319 9 111 1.6 11.3 0.00 0.00 0.00 87 1007.7
20260510045832 9 133 4.8 11.3 0.00 0.00 0.00 87 1007.8
20260510045310 9 114 3.2 9.7 0.00 0.00 0.00 87 1007.8
20260510044838 9 45 1.6 11.3 0.00 0.00 0.00 87 1007.8
20260510044314 9 104 3.2 12.9 0.00 0.00 0.00 87 1007.8
20260510043808 9 123 3.2 8.0 0.00 0.00 0.00 87 1007.9
20260510043305 9 131 4.8 8.0 0.00 0.00 0.00 87 1007.9
20260510042817 9 104 3.2 12.9 0.00 0.00 0.00 87 1007.8
20260510042315 9 235 4.8 14.5 0.00 0.00 0.00 87 1007.6
20260510041811 9 107 4.8 14.5 0.00 0.00 0.00 87 1007.7
20260510041323 9 44 6.4 19.3 0.00 0.00 0.00 86 1007.6
20260510040835 9 94 3.2 19.3 0.00 0.00 0.00 87 1007.4
20260510040307 9 130 4.8 20.9 0.00 0.00 0.00 86 1007.4
20260510035820 9 243 8.0 20.9 0.00 0.00 0.00 86 1007.4
20260510035333 9 99 6.4 12.9 0.00 0.00 0.00 86 1007.4
20260510034806 9 72 1.6 12.9 0.00 0.00 0.00 87 1007.5
20260510034318 9 260 3.2 11.3 0.00 0.00 0.00 86 1007.6
20260510033810 9 64 4.8 17.7 0.00 0.00 0.00 86 1007.7
20260510033322 9 45 4.8 17.7 0.00 0.00 0.00 86 1007.8
20260510032815 10 58 3.2 16.1 0.00 0.00 0.00 86 1007.9
20260510032334 10 278 6.4 16.1 0.00 0.00 0.00 86 1007.9
20260510031806 10 191 3.2 17.7 0.00 0.00 0.00 86 1007.9
20260510031319 10 180 4.8 17.7 0.00 0.00 0.00 86 1007.8
20260510030811 10 114 8.0 16.1 0.00 0.00 0.00 86 1007.8
20260510030311 10 20 8.0 14.5 0.00 0.00 0.00 86 1007.8
20260510025823 10 130 4.8 16.1 0.00 0.00 0.00 86 1008.0
20260510025315 10 150 6.4 16.1 0.00 0.00 0.00 86 1007.8
20260510024837 10 70 6.4 19.3 0.00 0.00 0.00 86 1007.9
20260510024329 9 180 6.4 19.3 0.00 0.00 0.00 86 1007.9
20260510023821 9 42 4.8 20.9 0.00 0.00 0.00 86 1007.9
20260510023313 9 230 8.0 16.1 0.00 0.00 0.00 86 1007.9
20260510022805 9 83 4.8 14.5 0.00 0.00 0.00 86 1008.1
20260510022317 9 90 3.2 12.9 0.00 0.00 0.00 86 1008.0
20260510021811 9 68 4.8 14.5 0.00 0.00 0.00 86 1008.1
20260510021304 9 106 6.4 14.5 0.00 0.00 0.00 86 1008.0
20260510020816 9 86 6.4 16.1 0.00 0.00 0.00 86 1008.3
20260510020327 9 203 6.4 16.1 0.00 0.00 0.00 86 1008.2
20260510015818 9 96 6.4 16.1 0.00 0.00 0.00 86 1008.2
20260510015310 9 74 4.8 17.7 0.00 0.00 0.00 86 1008.3
20260510014823 9 45 4.8 27.4 0.00 0.00 0.00 86 1008.2
20260510014315 9 243 9.7 19.3 0.00 0.00 0.00 86 1008.1
20260510013816 9 102 4.8 17.7 0.00 0.00 0.00 86 1008.3
20260510013307 9 268 6.4 17.7 0.00 0.00 0.00 86 1008.4
20260510012819 9 73 4.8 25.7 0.00 0.00 0.00 85 1008.4
20260510012310 9 49 4.8 25.7 0.00 0.00 0.00 85 1008.4
20260510011805 9 114 4.8 17.7 0.00 0.00 0.00 85 1008.6
20260510011336 9 85 6.4 24.1 0.00 0.00 0.00 85 1008.5
20260510010808 9 113 9.7 20.9 0.00 0.00 0.00 85 1008.4
20260510010320 9 53 6.4 14.5 0.00 0.00 0.00 85 1008.5
20260510005813 9 61 3.2 6.4 0.00 0.00 0.00 85 1008.5
20260510005306 9 83 3.2 11.3 0.00 0.00 0.00 85 1008.5
20260510004818 9 49 1.6 14.5 0.00 0.00 0.00 84 1008.8
20260510004319 9 97 6.4 14.5 0.00 0.00 0.00 84 1008.5
20260510003811 9 97 3.2 12.9 0.00 0.00 0.00 84 1008.6
20260510003307 9 193 4.8 16.1 0.00 0.00 0.00 84 1008.7
20260510002836 9 42 3.2 16.1 0.00 0.00 0.00 84 1008.6
20260510002311 9 104 4.8 16.1 0.00 0.00 0.00 83 1008.6
20260510001823 9 254 8.0 16.1 0.00 0.00 0.00 83 1008.5
20260510001316 9 101 8.0 16.1 0.00 0.00 0.00 83 1008.5
20260510000816 9 78 6.4 16.1 0.00 0.00 0.00 83 1008.5
20260510000308 10 256 4.8 17.7 0.00 0.00 0.00 83 1008.4
20260509235821 10 25 4.8 17.7 0.00 0.00 0.00 83 1008.4
20260509235313 10 52 6.4 11.3 0.00 0.00 0.00 82 1008.4
20260509234805 10 137 4.8 14.5 0.00 0.00 0.00 83 1008.3
20260509234318 10 77 4.8 17.7 0.00 0.00 0.00 82 1008.4
20260509233810 10 293 4.8 17.7 0.00 0.00 0.00 82 1008.6
20260509233342 10 87 8.0 16.1 0.00 0.00 0.00 82 1008.5
20260509232813 10 83 4.8 16.1 0.00 0.00 0.00 82 1008.4
20260509232306 10 100 6.4 17.7 0.00 0.00 0.00 82 1008.4
20260509231817 10 126 11.3 17.7 0.00 0.00 0.00 81 1008.4
20260509231311 10 132 8.0 17.7 0.00 0.00 0.00 81 1008.4
20260509230823 10 97 9.7 17.7 0.00 0.00 0.00 81 1008.4
20260509230315 10 158 6.4 16.1 0.00 0.00 0.00 81 1008.4
20260509225808 10 78 4.8 16.1 0.00 0.00 0.00 81 1008.4
20260509225340 10 230 6.4 22.5 0.00 0.00 0.00 80 1008.4
20260509224811 10 256 6.4 22.5 0.00 0.00 0.00 81 1008.3
20260509224323 10 126 6.4 16.1 0.00 0.00 0.00 81 1008.5
20260509223838 10 66 3.2 14.5 0.00 0.00 0.00 81 1008.6
20260509223309 10 89 4.8 12.9 0.00 0.00 0.00 81 1008.6
20260509222821 10 115 4.8 14.5 0.00 0.00 0.00 80 1008.6
20260509222313 10 126 4.8 14.5 0.00 0.00 0.00 80 1008.7
20260509221806 10 164 4.8 17.7 0.00 0.00 0.00 79 1008.7
20260509221319 10 152 8.0 17.7 0.00 0.00 0.00 79 1008.7
20260509220812 10 87 8.0 16.1 0.00 0.00 0.00 79 1008.7
20260509220324 10 102 9.7 17.7 0.00 0.00 0.00 79 1008.6
20260509215817 10 118 6.4 17.7 0.00 0.00 0.00 79 1008.6
20260509215310 10 108 4.8 11.3 0.00 0.00 0.00 79 1008.6
20260509214807 10 131 4.8 16.1 0.00 0.00 0.00 79 1008.7
20260509214319 10 74 6.4 22.5 0.00 0.00 0.00 79 1008.8
20260509213812 10 255 9.7 22.5 0.00 0.00 0.00 80 1008.9
20260509213304 10 64 4.8 14.5 0.00 0.00 0.00 79 1008.9
20260509212817 10 150 4.8 22.5 0.00 0.00 0.00 80 1009.0
20260509212329 10 158 8.0 24.1 0.00 0.00 0.00 81 1009.0
20260509211820 10 125 8.0 20.9 0.00 0.00 0.00 81 1009.0
20260509211313 10 160 4.8 27.4 0.00 0.00 0.00 82 1009.0
20260509210805 10 101 6.4 27.4 0.00 0.00 0.00 82 1009.0
20260509210337 10 68 8.0 24.1 0.00 0.00 0.00 81 1009.1
20260509205809 10 123 11.3 19.3 0.00 0.00 0.00 81 1009.1
20260509205323 10 92 6.4 24.1 0.00 0.00 0.00 81 1009.2
20260509204815 10 92 11.3 27.4 0.00 0.00 0.00 80 1009.2
20260509204307 10 39 6.4 25.7 0.00 0.00 0.00 79 1009.1
20260509203819 10 136 8.0 16.1 0.00 0.00 0.00 79 1009.2
20260509203312 10 157 8.0 25.7 0.00 0.00 0.00 79 1009.2
20260509202805 10 126 12.9 25.7 0.00 0.00 0.00 79 1009.2
20260509202337 10 112 9.7 19.3 0.00 0.00 0.00 79 1009.3
20260509201810 10 108 8.0 22.5 0.00 0.00 0.00 78 1009.3
20260509201321 10 131 4.8 22.5 0.00 0.00 0.00 78 1009.3
20260509200821 10 102 6.4 19.3 0.00 0.00 0.00 77 1009.4
20260509200321 10 10 9.7 30.6 0.00 0.00 0.00 76 1009.3
20260509195834 11 116 11.3 30.6 0.00 0.00 0.00 76 1009.4
20260509195326 11 136 8.0 22.5 0.00 0.00 0.00 76 1009.4
20260509194837 11 95 11.3 20.9 0.00 0.00 0.00 75 1009.2
20260509194310 11 224 8.0 20.9 0.00 0.00 0.00 75 1009.3
20260509193821 11 112 11.3 32.2 0.00 0.00 0.00 75 1009.3
20260509193312 11 117 12.9 32.2 0.00 0.00 0.00 74 1009.3
20260509192806 11 101 9.7 29.0 0.00 0.00 0.00 74 1009.2
20260509192318 11 140 14.5 29.0 0.00 0.00 0.00 75 1009.4
20260509191809 11 77 12.9 25.7 0.00 0.00 0.00 75 1009.2
20260509191322 11 164 14.5 25.7 0.00 0.00 0.00 75 1009.3
20260509190816 10 116 14.5 24.1 0.00 0.00 0.00 76 1009.4
20260509190307 10 57 17.7 24.1 0.00 0.00 0.00 76 1009.5
20260509185819 10 129 9.7 19.3 0.00 0.00 0.00 76 1009.5
20260509185333 10 126 6.4 27.4 0.00 0.00 0.00 76 1009.6
20260509184804 10 89 14.5 27.4 0.00 0.00 0.00 75 1009.7
20260509184316 10 85 6.4 16.1 0.00 0.00 0.00 75 1009.9
20260509183813 10 108 8.0 25.7 0.00 0.00 0.00 75 1009.9
20260509183305 10 106 9.7 19.3 0.00 0.00 0.00 74 1010.0
20260509182818 10 96 9.7 24.1 0.00 0.00 0.00 74 1010.0
20260509182319 10 85 14.5 24.1 0.00 0.00 0.00 74 1009.9
20260509181831 10 89 8.0 19.3 0.00 0.00 0.00 73 1010.2
20260509181322 10 106 11.3 24.1 0.00 0.00 0.00 73 1010.1
20260509180814 10 129 11.3 25.7 0.00 0.00 0.00 71 1010.1
20260509180306 11 167 8.0 27.4 0.00 0.00 0.00 70 1010.3
20260509175818 11 158 12.9 30.6 0.00 0.00 0.00 69 1010.2
20260509175311 11 111 16.1 30.6 0.00 0.00 0.00 67 1010.1
20260509174804 12 95 9.7 24.1 0.00 0.00 0.00 64 1010.0
20260509174336 12 106 16.1 25.7 0.00 0.00 0.00 63 1009.9
20260509173827 12 180 12.9 25.7 0.00 0.00 0.00 61 1010.0
20260509173319 13 91 12.9 25.7 0.00 0.00 0.00 58 1010.0
20260509172820 13 84 6.4 19.3 0.00 0.00 0.00 56 1009.9
20260509172312 13 153 4.8 22.5 0.00 0.00 0.00 54 1009.9
20260509171804 13 150 11.3 22.5 0.00 0.00 0.00 53 1009.9
20260509171315 13 118 9.7 19.3 0.00 0.00 0.00 52 1009.9
20260509170808 13 74 4.8 24.1 0.00 0.00 0.00 49 1010.0
20260509170340 13 84 8.0 24.1 0.00 0.00 0.00 46 1009.9
20260509165811 14 116 8.0 19.3 0.00 0.00 0.00 45 1009.8
20260509165323 15 189 8.0 19.3 0.00 0.00 0.00 43 1009.9
20260509164815 15 185 6.4 22.5 0.00 0.00 0.00 41 1010.1
20260509164308 15 180 9.7 29.0 0.00 0.00 0.00 40 1010.0
20260509163821 15 98 9.7 29.0 0.00 0.00 0.00 45 1010.0
20260509163313 15 90 11.3 22.5 0.00 0.00 0.00 42 1010.1
20260509162806 14 78 11.3 20.9 0.00 0.00 0.00 41 1010.1
20260509162318 14 96 9.7 17.7 0.00 0.00 0.00 43 1010.3
20260509161810 15 218 4.8 14.5 0.00 0.00 0.00 40 1010.4
20260509161322 15 163 6.4 14.5 0.00 0.00 0.00 43 1010.4
20260509160815 15 95 6.4 16.1 0.00 0.00 0.00 42 1010.4
20260509160327 15 264 6.4 17.7 0.00 0.00 0.00 38 1010.4
20260509155818 15 258 8.0 17.7 0.00 0.00 0.00 38 1010.4
20260509155329 15 74 6.4 16.1 0.00 0.00 0.00 37 1010.5
20260509154821 15 99 6.4 14.5 0.00 0.00 0.00 36 1010.6
20260509154314 15 88 9.7 17.7 0.00 0.00 0.00 37 1010.7
20260509153810 15 185 6.4 17.7 0.00 0.00 0.00 38 1010.8
20260509153321 15 106 8.0 17.7 0.00 0.00 0.00 37 1010.8
20260509152813 15 98 8.0 17.7 0.00 0.00 0.00 38 1010.9
20260509152325 15 78 8.0 14.5 0.00 0.00 0.00 39 1010.8
20260509151817 15 127 6.4 16.1 0.00 0.00 0.00 38 1010.9
20260509151310 15 95 8.0 16.1 0.00 0.00 0.00 38 1010.9
20260509150822 15 89 6.4 17.7 0.00 0.00 0.00 38 1011.0
20260509150318 15 97 11.3 17.7 0.00 0.00 0.00 40 1011.0
20260509145810 15 104 4.8 14.5 0.00 0.00 0.00 39 1011.0
20260509145322 15 139 4.8 11.3 0.00 0.00 0.00 43 1011.0
20260509144835 14 77 4.8 14.5 0.00 0.00 0.00 44 1011.1
20260509144327 14 55 8.0 12.9 0.00 0.00 0.00 43 1011.0
20260509143817 13 237 4.8 12.9 0.00 0.00 0.00 38 1011.2
20260509143309 13 185 8.0 12.9 0.00 0.00 0.00 41 1011.2
20260509142821 13 70 9.7 12.9 0.00 0.00 0.00 42 1011.3
20260509142313 13 232 3.2 9.7 0.00 0.00 0.00 39 1011.3
20260509141805 13 85 6.4 16.1 0.00 0.00 0.00 40 1011.4
20260509141317 13 114 6.4 16.1 0.00 0.00 0.00 43 1011.4
20260509140809 13 57 6.4 16.1 0.00 0.00 0.00 45 1011.2
20260509140342 13 242 1.6 17.7 0.00 0.00 0.00 41 1011.3
20260509135814 13 66 4.8 12.9 0.00 0.00 0.00 44 1011.4
20260509135306 13 96 3.2 11.3 0.00 0.00 0.00 44 1011.3
20260509134818 12 170 1.6 12.9 0.00 0.00 0.00 43 1011.5
20260509134310 12 128 8.0 12.9 0.00 0.00 0.00 41 1011.5
20260509133823 12 256 6.4 14.5 0.00 0.00 0.00 41 1011.4
20260509133312 12 229 6.4 14.5 0.00 0.00 0.00 43 1011.4
20260509132825 12 226 3.2 16.1 0.00 0.00 0.00 41 1011.4
20260509132337 12 110 3.2 16.1 0.00 0.00 0.00 43 1011.5
20260509131809 12 292 3.2 16.1 0.00 0.00 0.00 42 1011.5
20260509131341 12 281 3.2 16.1 0.00 0.00 0.00 41 1011.6
20260509130832 12 262 4.8 14.5 0.00 0.00 0.00 43 1011.7
20260509130305 12 20 6.4 16.1 0.00 0.00 0.00 41 1011.7
20260509125836 12 256 6.4 16.1 0.00 0.00 0.00 44 1011.6
20260509125308 12 52 1.6 14.5 0.00 0.00 0.00 46 1011.6
20260509124821 12 227 8.0 14.5 0.00 0.00 0.00 45 1011.8
20260509124313 12 156 4.8 12.9 0.00 0.00 0.00 46 1011.8
20260509123805 11 94 1.6 11.3 0.00 0.00 0.00 48 1011.8
20260509123317 11 79 6.4 11.3 0.00 0.00 0.00 48 1011.8